This is the latest recevied weather packets stored in our database for station/object K7LDN-13. If no packets are shown the sender has not sent any weather packets the latest 10 day(s).
| Time | Temp. | Humidity | Pressure | Rain* | Wind** | Luminosity | Snow |
|---|---|---|---|---|---|---|---|
| 1777753456 | 21.11° C | 17% | 1021.9 hPa | 0 mm | - | 772 W/m² | - |
| 1777753154 | 21.11° C | 18% | 1021.8 hPa | 0 mm | - | 801 W/m² | - |
| 1777752850 | 21.67° C | 17% | 1021.9 hPa | 0 mm | - | 821 W/m² | - |
| 1777752547 | 21.11° C | 17% | 1022 hPa | 0 mm | - | 843 W/m² | - |
| 1777752242 | 21.11° C | 16% | 1022.1 hPa | 0 mm | - | 825 W/m² | - |
| 1777751940 | 21.11° C | 16% | 1022.1 hPa | 0 mm | - | 834 W/m² | - |
| 1777751637 | 21.11° C | 16% | 1022.2 hPa | 0 mm | - | 832 W/m² | - |
| 1777751333 | 21.11° C | 16% | 1022.2 hPa | 0 mm | - | 846 W/m² | - |
| 1777750726 | 20.56° C | 17% | 1022.5 hPa | 0 mm | - | 862 W/m² | - |
| 1777750119 | 20.56° C | 19% | 1022.4 hPa | 0 mm | - | 866 W/m² | - |
| 1777749513 | 20° C | 17% | 1022.2 hPa | 0 mm | - | 871 W/m² | - |
| 1777748301 | 20.56° C | 17% | 1022.9 hPa | 0 mm | - | 858 W/m² | - |
| 1777747081 | 20° C | 19% | 1023.2 hPa | 0 mm | - | 859 W/m² | - |
| 1777746471 | 19.44° C | 19% | 1023.3 hPa | 0 mm | - | 719 W/m² | - |
| 1777745249 | 19.44° C | 23% | 1023.5 hPa | 0 mm | - | 833 W/m² | - |
| 1777742213 | 18.33° C | 27% | 1023.6 hPa | 0 mm | - | 757 W/m² | - |
| 1777740698 | 17.22° C | 29% | 1023.8 hPa | 0 mm | - | 703 W/m² | - |
| 1777739787 | 16.11° C | 31% | 1024 hPa | 0 mm | - | 671 W/m² | - |
| 1777739180 | 15.56° C | 34% | 1023.8 hPa | 0 mm | - | 646 W/m² | - |
| 1777738878 | 15.56° C | 34% | 1023.8 hPa | 0 mm | - | 645 W/m² | - |
| 1777738575 | 15.56° C | 34% | 1024 hPa | 0 mm | - | 621 W/m² | - |
| 1777738272 | 15.56° C | 36% | 1024 hPa | 0 mm | - | 618 W/m² | - |
| 1777737970 | 15.56° C | 36% | 1023.7 hPa | 0 mm | - | 602 W/m² | - |
| 1777737366 | 15° C | 37% | 1023.8 hPa | 0 mm | - | 572 W/m² | - |
| 1777737063 | 15° C | 40% | 1023.8 hPa | 0 mm | - | 557 W/m² | - |
* Rain latest hour (hover to see other rain measurements)
** Current wind speed in m/s (hover to see current wind gust speed)